STARLINK-3267 (50197 NORAD) Tracking and Keplerian Element Data

This shows tracking and keplerian element data for the satellite.

Feedback or suggestion? Click here.




ElementValue
Catalog50197
NameSTARLINK-3267
Epoch Orbit130
Epoch Day140.58334491
Epoch Year2022
RAAN355.0511
Inclination53.218
Eccentricity0.000167
Argument of Perigee59.2264
Mean Anonmoly2.2671
Mean Motion15.08845642
Decay Rate5.39E-06
L11 50197U 21125AT 22140.58334491 .00000539 00000+0 51975-4 0 9996
L22 50197 53.2180 355.0511 0001670 59.2264 2.2671 15.08845642 1300

Live tracking and technical data element details for STARLINK-3267 (NORAD 50197). STARLINK-3267 can be tracked NOW for your location showing map with azimuth and elevation plus other details from your city location.

Track the satellite on the map from your city or location and see movement details for azimuth, elevation, latitude, longitude, range, height, and movement on the map or in text.







IsCatalogInMostPopularTable: catalog: 50197, numindb: 23
Update: records affected: 1



GetName: 50197 STARLINK-3267

Hit Count: updated at: Mon, 23 May 2022 21:31:05 GMT